Newcastle, WY

1:21 AM MST on December 16, 2019 (GMT -0700)
Mondell

Weather History for KECS - October, 2019

Change the Weather History Date:

Wednesday, October 16, 2019

  Actual Average (WUND) Record (WUND)
Temperature  
Mean Temperature 50 °F -  
Max Temperature 69 °F - - (-1)
Min Temperature 30 °F - - (-1)
Degree Days  
Heating Degree Days 16    
Moisture  
Dew Point 27 °F    
Average Humidity 51    
Maximum Humidity 81    
Minimum Humidity 18    
Precipitation  
Precipitation 0.00 in - - ()
Sea Level Pressure  
Sea Level Pressure 30.03 in    
Wind  
Wind Speed 4 mph (ENE)    
Max Wind Speed 10 mph    
Max Gust Speed -    
Visibility 10 miles    
Events      
Averages and records for this station are not official NWS values.
T = Trace of Precipitation, MM = Missing Value Source: NWS Daily Summary

Daily Weather History Graph

Daily Weather History Graph

Search for Another Location

Airport or City:

Astronomy

Oct. 16, 2019 Rise Set
Actual Time 7:12 AM MDT 6:12 PM MDT
Civil Twilight 6:43 AM MDT 6:41 PM MDT
Nautical Twilight 6:10 AM MDT 7:14 PM MDT
Astronomical Twilight 5:36 AM MDT 7:47 PM MDT
Moon 8:02 PM MDT 9:49 AM MDT
Length of Visible Light 11h 57m
Length of Day
10h 59m
Waning Gibbous, 92% of the Moon is Illuminated
Oct 16
Waning Gibbous
Oct 21
Last Quarter
Oct 27
New
Nov 4
First Quarter
Nov 12
Full

Hourly Weather History & Observations

Time (MDT) Temp. Windchill Dew Point Humidity Pressure Visibility Wind Dir Wind Speed Gust Speed Precip Events Conditions
12:15 AM 32.0 °F 26.4 °F 24.8 °F 75% 30.20 in 10.0 mi SE 5.8 mph - N/A   Clear
12:35 AM 32.0 °F 25.6 °F 24.8 °F 75% 30.19 in 10.0 mi SE 6.9 mph - N/A   Clear
12:55 AM 33.8 °F 27.7 °F 24.8 °F 70% 30.19 in 10.0 mi SE 6.9 mph - N/A   Clear
1:15 AM 35.6 °F 30.7 °F 24.8 °F 65% 30.19 in 10.0 mi SE 5.8 mph - N/A   Clear
1:40 AM 35.6 °F 31.7 °F 24.8 °F 65% 30.17 in 10.0 mi SE 4.6 mph - N/A   Clear
1:55 AM 35.6 °F 31.7 °F 23.0 °F 60% 30.17 in 10.0 mi SE 4.6 mph - N/A   Clear
2:15 AM 33.8 °F 30.8 °F 23.0 °F 65% 30.17 in 10.0 mi SE 3.5 mph - N/A   Clear
2:40 AM 33.8 °F - 23.0 °F 65% 30.16 in 10.0 mi Calm Calm - N/A   Clear
2:55 AM 33.8 °F 29.6 °F 23.0 °F 65% 30.15 in 10.0 mi ESE 4.6 mph - N/A   Clear
3:15 AM 32.0 °F 28.7 °F 23.0 °F 69% 30.14 in 10.0 mi SSW 3.5 mph - N/A   Clear
3:35 AM 32.0 °F - 23.0 °F 69% 30.13 in 10.0 mi Calm Calm - N/A   Clear
3:55 AM 33.8 °F - 23.0 °F 65% 30.12 in 10.0 mi Calm Calm - N/A   Clear
4:15 AM 32.0 °F - 24.8 °F 75% 30.12 in 10.0 mi Calm Calm - N/A   Clear
4:35 AM 35.6 °F - 23.0 °F 60% 30.10 in 10.0 mi Calm Calm - N/A   Clear
4:55 AM 32.0 °F - 23.0 °F 69% 30.10 in 10.0 mi Calm Calm - N/A   Clear
5:15 AM 30.2 °F - 24.8 °F 80% 30.10 in 10.0 mi Calm Calm - N/A   Clear
5:35 AM 32.0 °F - 24.8 °F 75% 30.09 in 10.0 mi Calm Calm - N/A   Clear
5:55 AM 30.2 °F 26.7 °F 24.8 °F 80% 30.09 in 10.0 mi North 3.5 mph - N/A   Clear
6:15 AM 30.2 °F - 24.8 °F 80% 30.08 in 10.0 mi Calm Calm - N/A   Clear
6:35 AM 32.0 °F 28.7 °F 26.6 °F 80% 30.08 in 10.0 mi NNE 3.5 mph - N/A   Clear
6:55 AM 32.0 °F 25.6 °F 26.6 °F 80% 30.08 in 10.0 mi North 6.9 mph - N/A   Clear
7:10 AM 32.0 °F 28.7 °F 26.6 °F 80% 30.08 in 10.0 mi North 3.5 mph - N/A   Clear
7:35 AM 32.0 °F 28.7 °F 26.6 °F 80% 30.07 in 10.0 mi NNE 3.5 mph - N/A   Clear
8:35 AM 33.8 °F - 28.4 °F 81% 30.08 in 10.0 mi Calm Calm - N/A   Clear
8:55 AM 37.4 °F - 30.2 °F 75% 30.08 in 10.0 mi Calm Calm - N/A   Clear
9:15 AM 41.0 °F - 28.4 °F 61% 30.07 in 10.0 mi Calm Calm - N/A   Clear
9:35 AM 42.8 °F - 28.4 °F 57% 30.08 in 10.0 mi Calm Calm - N/A   Clear
9:55 AM 44.6 °F - 30.2 °F 57% 30.08 in 10.0 mi Calm Calm - N/A   Clear
10:15 AM 46.4 °F - 28.4 °F 50% 30.08 in 10.0 mi Calm Calm - N/A   Clear
10:35 AM 50.0 °F - 28.4 °F 43% 30.07 in 10.0 mi SE 3.5 mph - N/A   Clear
10:55 AM 53.6 °F - 28.4 °F 38% 30.06 in 10.0 mi SW 3.5 mph - N/A   Clear
11:15 AM 53.6 °F - 28.4 °F 38% 30.06 in 10.0 mi South 4.6 mph - N/A   Clear
11:35 AM 55.4 °F - 28.4 °F 36% 30.06 in 10.0 mi SSW 5.8 mph - N/A   Clear
11:55 AM 55.4 °F - 26.6 °F 33% 30.06 in 10.0 mi WSW 3.5 mph - N/A   Clear
12:15 PM 59.0 °F - 28.4 °F 31% 30.05 in 10.0 mi South 5.8 mph - N/A   Clear
12:35 PM 57.2 °F - 28.4 °F 33% 30.04 in 10.0 mi South 10.4 mph - N/A   Clear
12:55 PM 59.0 °F - 28.4 °F 31% 30.03 in 10.0 mi East 9.2 mph - N/A   Clear
1:15 PM 60.8 °F - 28.4 °F 29% 30.02 in 10.0 mi ESE 6.9 mph - N/A   Clear
1:35 PM 62.6 °F - 28.4 °F 27% 30.02 in 10.0 mi South 3.5 mph - N/A   Clear
1:55 PM 64.4 °F - 28.4 °F 26% 30.01 in 10.0 mi SSW 3.5 mph - N/A   Clear
2:15 PM 64.4 °F - 28.4 °F 26% 30.00 in 10.0 mi Calm Calm - N/A   Clear
2:35 PM 68.0 °F - 28.4 °F 23% 30.00 in 10.0 mi Calm Calm - N/A   Clear
2:55 PM 68.0 °F - 28.4 °F 23% 29.99 in 10.0 mi Calm Calm - N/A   Clear
3:15 PM 68.0 °F - 28.4 °F 23% 29.98 in 10.0 mi Calm Calm - N/A   Clear
3:35 PM 69.8 °F - 28.4 °F 21% 29.98 in 10.0 mi SSE 3.5 mph - N/A   Clear
3:55 PM 69.8 °F - 26.6 °F 20% 29.96 in 10.0 mi Calm Calm - N/A   Clear
4:15 PM 69.8 °F - 26.6 °F 20% 29.96 in 10.0 mi Calm Calm - N/A   Clear
4:35 PM 69.8 °F - 24.8 °F 18% 29.96 in 10.0 mi Calm Calm - N/A   Clear
4:55 PM 69.8 °F - 24.8 °F 18% 29.95 in 10.0 mi Calm Calm - N/A   Clear
5:15 PM 69.8 °F - 24.8 °F 18% 29.95 in 10.0 mi Calm Calm - N/A   Clear
5:35 PM 68.0 °F - 26.6 °F 21% 29.95 in 10.0 mi WNW 5.8 mph - N/A   Clear
5:55 PM 68.0 °F - 26.6 °F 21% 29.94 in 10.0 mi Calm Calm - N/A   Clear
6:15 PM 64.4 °F - 26.6 °F 24% 29.95 in 10.0 mi West 5.8 mph - N/A   Clear
6:35 PM 53.6 °F - 30.2 °F 41% 29.95 in 10.0 mi Calm Calm - N/A   Clear
6:55 PM 51.8 °F - 30.2 °F 44% 29.95 in 10.0 mi Calm Calm - N/A   Clear
7:15 PM 51.8 °F - 32.0 °F 47% 29.95 in 10.0 mi NNW 6.9 mph - N/A   Clear
7:35 PM 50.0 °F - 32.0 °F 50% 29.95 in 10.0 mi North 6.9 mph - N/A   Clear
7:55 PM 50.0 °F - 32.0 °F 50% 29.95 in 10.0 mi North 5.8 mph - N/A   Clear
8:15 PM 48.2 °F - 32.0 °F 54% 29.95 in 10.0 mi NNE 6.9 mph - N/A   Clear
8:35 PM 46.4 °F 42.9 °F 32.0 °F 57% 29.95 in 10.0 mi NNE 6.9 mph - N/A   Clear
8:55 PM 46.4 °F 42.9 °F 32.0 °F 57% 29.94 in 10.0 mi North 6.9 mph - N/A   Clear
9:15 PM 46.4 °F 43.5 °F 30.2 °F 53% 29.94 in 10.0 mi North 5.8 mph - N/A   Clear
9:35 PM 46.4 °F 41.5 °F 30.2 °F 53% 29.94 in 10.0 mi NNE 10.4 mph - N/A   Clear
9:55 PM 44.6 °F 41.4 °F 30.2 °F 57% 29.93 in 10.0 mi NNE 5.8 mph - N/A   Clear
10:15 PM 44.6 °F 43.1 °F 30.2 °F 57% 29.93 in 10.0 mi NE 3.5 mph - N/A   Clear
10:35 PM 44.6 °F 41.4 °F 30.2 °F 57% 29.94 in 10.0 mi North 5.8 mph - N/A   Clear
10:55 PM 44.6 °F 40.2 °F 32.0 °F 61% 29.93 in 10.0 mi North 8.1 mph - N/A   Clear
11:15 PM 44.6 °F 43.1 °F 30.2 °F 57% 29.93 in 10.0 mi NNE 3.5 mph - N/A   Clear
11:35 PM 46.4 °F 43.5 °F 30.2 °F 53% 29.91 in 10.0 mi NE 5.8 mph - N/A   Clear
11:55 PM 44.6 °F - 30.2 °F 57% 29.91 in 10.0 mi Calm Calm - N/A   Clear